Flag for U.S.A. Weather past 2 weeks in Simi Valley, California, U.S.A.

Now
76 °F

Sunny.


Feels Like: 78 °F
Forecast: 67 / 93 °F
Wind: No wind

Location: Van Nuys Airport

Current Time: Jul 30, 2014 at 9:19:40 AM

Latest Report: Jul 30, 2014 at 7:51 AM


Visibility: 10 mi

Pressure: 29.94 "Hg

Humidity: 54%

Dew point: 58 °F

Location of Simi ValleyLocation

Historic Weather in Simi Valley — Graph

°F

Simi Valley temperature yesterday

Maximum temperature yesterday: 95 °F (at 3:51 PM)
Minimum temperature yesterday: 70 °F (at 6:51 AM)
Average temperature yesterday: 82 °F

Past Weeks' High & Low Weather Summary

 TemperatureHumidityPressure
High102 °F (Jul 24, 3:51 PM)84% (Jul 17, 3:51 AM)30.05 "Hg (Jul 17, 3:51 AM)
Low62 °F (Jul 18, 4:51 AM)7% (Jul 24, 12:51 PM)29.70 "Hg (Jul 24, 5:51 PM)
Average77 °F52%29.94 "Hg
* Reported Jul 15 7:51 AM — Jul 30 7:51 AM, Simi Valley, Weather by CustomWeather, © 2014

Note: Actual official high and low records may vary slightly from our data, if they occured in-between our weather recording intervals... More about our weather records

Advertising

Simi Valley weather history for previous 24 hours

 ConditionsComfort  
Time TempWeatherWind HumidityBarometerVisibility
7:51 AM
Jul 30
76 °FSunny.No wind54%29.94 "Hg10 mi
6:51 AM73 °FClear.No wind57%29.93 "Hg10 mi
5:51 AM72 °FClear.No wind57%29.92 "Hg10 mi
4:51 AM73 °FClear.No wind55%29.91 "Hg10 mi
3:51 AM72 °FClear.No wind57%29.91 "Hg10 mi
2:51 AM73 °FClear.No wind55%29.92 "Hg10 mi
1:51 AM72 °FClear.No wind57%29.93 "Hg10 mi
12:51 AM73 °FClear.3 mph57%29.93 "Hg10 mi
11:51 PM
Jul 29
76 °FClear.6 mph50%29.93 "Hg10 mi
10:51 PM79 °FClear.3 mph44%29.93 "Hg10 mi
9:51 PM82 °FClear.No wind33%29.93 "Hg10 mi
8:51 PM83 °FSunny.3 mph33%29.93 "Hg10 mi
7:51 PM84 °FSunny.3 mph32%29.92 "Hg10 mi
6:51 PM86 °FSunny.3 mph31%29.90 "Hg10 mi
5:51 PM87 °FSunny.6 mph30%29.90 "Hg10 mi
4:51 PM93 °FSunny.9 mph23%29.89 "Hg10 mi
3:51 PM95 °FSunny.9 mph21%29.90 "Hg10 mi
2:51 PM94 °FSunny.9 mph23%29.92 "Hg10 mi
1:51 PM94 °FSunny.9 mph26%29.94 "Hg10 mi
12:51 PM93 °FSunny.8 mph24%29.96 "Hg10 mi
11:51 AM90 °FSunny.3 mph24%29.98 "Hg10 mi
10:51 AM86 °FSunny.No wind22%30.01 "Hg10 mi
9:51 AM84 °FSunny.No wind25%30.01 "Hg10 mi
Weather by CustomWeather, © 2014

See weather overviewHow to use our weather pages